Find Starlink 32595

NORAD ID: 62037 Int'l Des: 2024-216 Owner: SPXS Country: US Constellation: starlink operational
LEOCIRCULAR

Current View

Loading 3D Globe...

About Starlink 32595

Starlink 32595 (NORAD 62037) is a starlink constellation satellite (v2 mini) launched Nov 21, 2024 by SPXS of US. It operates in LEO, CIRCULAR orbit with a mass of 730.00 kg.

About Starlink 32595

Description loading...

Upcoming Passes

Passes for default location (London). Set your location on the main map for personalized predictions.

Altitude History

Loading altitude history...

Two-Line Element Set

1 62037U 24216F 26173.31559022 .00020764 00000-0 76194-3 0 9998
2 62037 43.0015 32.6471 0001278 266.7602 93.3104 15.27580350 89804
Epoch: Jun 22, 2026 • Age: 29 hours

Current Status

Altitude 486.9 km
Velocity 7.63 km/s
Sub-Earth Point 43.13°N, 18.54°E
Launch Date Nov 21, 2024
Age 1.5 years
Type internet

Technical Details

Classification Payload
Mass 730.00 kg
Dry Mass 700.00 kg
Total Mass 730.00 kg
Length 0.30 m
Diameter 4.10 m
Span 29.00 m
Shape Box + pan
Manufacturer SPXS
Bus Type Starlink V2M
Phase Status In Orbit
Owner/State SPXS/US

Most Searched